Regional Weather Roundup
Issued by NWS

Home | Current Version | Previous Version | Graphics & Text | Print | Product List | Glossary On
Versions: 1 2 3 4 5 6 7 8 9 10 11 12 13 14 15 16 17 18 19 20 21 22 23 24 25 26 27 28 29 30 31 32 33 34 35 36 37 38 39 40 41 42 43 44 45 46 47 48 49 50
000
ASUS43 KMPX 202110
RWRMN
WEATHER ROUNDUP FOR MINNESOTA
NATIONAL WEATHER SERVICE TWIN CITIES/CHANHASSEN MN
300 PM CST THU NOV 20 2014


NOTE: "FAIR" INDICATES FEW OR NO CLOUDS BELOW 12,000 FEET WITH NO
SIGNIFICANT WEATHER AND/OR OBSTRUCTIONS TO VISIBILITY. N/A MEANS
CURRENT SKY AND/OR WEATHER CONDITIONS ARE NOT AVAILABLE.

MNZ060>063-068>070-202200-
   Twin Cities Metro

CITY           SKY/WX    TMP DP  RH WIND       PRES   REMARKS
TWIN CITIES    SUNNY     17   1  49 NW15      30.16R WCI   2
ST PAUL        SUNNY     17   1  49 W17       30.17R WCI   1
CRYSTAL        SUNNY     18   2  49 NW14      30.15R WCI   4
BLAINE         SUNNY     19   3  49 W16G22    30.14  WCI   5
LAKEVILLE      SUNNY     16   3  57 W13       30.15R WCI   2
EDEN PRAIRIE   SUNNY     18   3  52 W15       30.15R WCI   4
SOUTH ST PAUL  SUNNY     19   0  44 W15G21    30.15R WCI   5
LAKE ELMO      FAIR      19   3  49 W13G18    30.15R WCI   7
$$
MNZ001>005-007-008-013>017-022>024-027-028-202200-
   Northwest Minnesota

CITY           SKY/WX    TMP DP  RH WIND       PRES   REMARKS
BEMIDJI        SUNNY     10  -2  59 W12       30.08S WCI  -5
HALLOCK        SUNNY     14   1  57 S3        30.11F
ROSEAU         SUNNY     12   1  62 W9        30.09S WCI   0
WARROAD        SUNNY     10   1  67 SW10      30.08R WCI  -3
THIEF RVR FALL SUNNY     10   1  67 W7        30.11S WCI   0
CROOKSTON      SUNNY     12   3  67 CALM      30.14F
FOSSTON        SUNNY     12   0  57 W6        30.12S WCI   3
DETROIT LAKES  SUNNY     14   5  67 CALM      30.13S
MOORHEAD       SUNNY     19   1  45 W3        30.15S
PARK RAPIDS    SUNNY     13  -1  54 W10       30.09R WCI   0
MAHNOMEN       FAIR       9   0  65 CALM      30.12S
$$
MNZ006-009>011-018-025>026-202200-
   North Central Minnesota

CITY           SKY/WX    TMP DP  RH WIND       PRES   REMARKS
BAUDETTE       SUNNY     10  -3  55 NW6       30.06R WCI   0
FLAG ISLAND    SUNNY     10   0  61 W8        30.05S WCI  -1
INTL FALLS     SUNNY     10  -3  55 W12       30.04R WCI  -5
WASKISH        SUNNY     12   1  62 W8        30.07S WCI   1
BIG FORK       SUNNY     12   0  57 W10       30.05R WCI  -1
LONGVILLE      SUNNY     12   0  57 W7        30.09R WCI   2
GRAND RAPIDS   SUNNY     10   0  61 NW12G18   30.05R WCI  -4
CRANE LAKE     MOSUNNY   10   0  61 NW3       30.05R
ORR            SUNNY     10  -2  56 NW9       30.00R WCI  -2
COOK             N/A     10   0  61 W9        30.02R WCI  -2
WALKER         FAIR      12  -2  53 W8        30.08S WCI   0
$$
MNZ012-019>021-037-202200-
   Northeast Minnesota

CITY           SKY/WX    TMP DP  RH WIND       PRES   REMARKS
DULUTH         MOSUNNY   13  -2  51 W16       30.01R WCI  -3
ELY            MOSUNNY    9   0  66 NW6G17    29.99R WCI  -1
HIBBING        SUNNY     13  -2  51 W9        30.03R WCI   1
EVELETH        SUNNY     12   0  57 W10       30.03R WCI  -1
DULUTH HARBOR  SUNNY     18   3  53 W13G21    30.09R WCI   4
TWO HARBORS    SUNNY     18   1  49 W9G16     30.00R WCI   6
SILVER BAY     SUNNY     16   0  48 NW7       29.99R WCI   6
GRAND MARAIS     N/A     11  -4  51 VRB6      30.02R WCI   1
G MARAIS ARPRT CLEAR      3  -8  60 W10G16    29.88R WCI -12
$$
MNZ029>031-032-039>041-046>048-054>057-064-202200-
   West Central Minnesota

CITY           SKY/WX    TMP DP  RH WIND       PRES   REMARKS
FERGUS FALLS   SUNNY     16   3  57 W5        30.18S WCI   9
WHEATON        SUNNY     16   7  67 W5        30.18F WCI   9
MORRIS         SUNNY     16   7  67 W7        30.16S WCI   6
ALEXANDRIA     SUNNY     13   3  64 W13       30.13S WCI  -2
ELBOW LAKE       N/A     13   6  73 W7        30.15S WCI   3
WADENA         SUNNY     12   0  57 W12G21    30.11S WCI  -2
GLENWOOD       SUNNY     14   3  62 W12       30.14S WCI   0
APPLETON       SUNNY     18   7  62 NW6       30.18F WCI   9
BENSON         SUNNY     12   5  73 NW6       30.18R WCI   3
ORTONVILLE     SUNNY     16   5  62 W6        30.17S WCI   7
MADISON        SUNNY     19   9  63 NW5       30.18F WCI  13
WILLMAR        FAIR      12   5  73 W8        30.18S WCI   1
$$
MNZ033>034-036-042>043-049>051-058-059-202200-
   Central Minnesota

CITY           SKY/WX    TMP DP  RH WIND       PRES   REMARKS
ST CLOUD       SUNNY     17   2  51 NW10      30.13S WCI   5
SAUK CENTRE    FAIR      14   4  62 W12       30.13S WCI   1
PAYNESVILLE    SUNNY     12   2  64 SW8       30.15S WCI   0
AITKIN         SUNNY     18  -2  41 NW7       30.07S WCI   8
PINE RIVER     SUNNY     14   0  52 NW7       30.12R WCI   4
BRAINERD       SUNNY     14   0  53 NW9       30.10R WCI   2
STAPLES        SUNNY     12   0  57 NW13      30.11R WCI  -3
LONG PRAIRIE   FAIR      16   3  57 W8        30.12S WCI   5
LITTLE FALLS   SUNNY     16   0  48 NW10      30.13S WCI   3
LITCHFIELD     SUNNY     16   7  67 W8        30.16S WCI   5
BUFFALO        SUNNY     16   3  55 W10       30.17R WCI   4
MAPLE LAKE     SUNNY     17   6  62 W7        30.16S WCI   7
$$
MNZ037-044-045-052-053-202200-
   East Central Minnesota

CITY           SKY/WX    TMP DP  RH WIND       PRES   REMARKS
PRINCETON      SUNNY     18   1  49 W10       30.13R WCI   6
MORA             N/A    N/A N/A N/A MISG        N/A
CAMBRIDGE      SUNNY     18   1  49 W7        30.12R WCI   8
RUSH CITY      SUNNY     17   1  49 W8        30.13R WCI   7
MOOSE LAKE     SUNNY     16   0  48 CALM      30.06S
HINCKLEY       FAIR      18   1  49 W8G16     30.10R WCI   7
CLOQUET        SUNNY     12  -2  52 W9        30.04R WCI   0
MCGREGOR       SUNNY     16   1  53 W10       30.08R WCI   3
$$
MNZ071>073-080-081-089-090-097-098-202200-
   Southwest Minnesota

CITY           SKY/WX    TMP DP  RH WIND       PRES   REMARKS
MONTEVIDEO     SUNNY     19   7  58 NW6       30.19S WCI  11
GRANITE FALLS  SUNNY     15   8  73 W6        30.20S WCI   6
CANBY          SUNNY     19   8  64 N5        30.18S WCI  12
MARSHALL       SUNNY     18   7  62 NW6       30.18S WCI   9
REDWOOD FALLS  SUNNY     18   7  62 W10       30.18S WCI   6
OLIVIA         SUNNY     18   9  68 NW8       30.17S WCI   7
PIPESTONE      SUNNY     18  10  73 NW6       30.14S WCI   9
WINDOM         SUNNY     19   9  63 NW10      30.16S WCI   8
WORTHINGTON    SUNNY     18   9  68 NW10      30.17R WCI   6
JACKSON        SUNNY     21   9  58 W10       30.16S WCI  10
TRACY          SUNNY     20  10  64 NW7       30.17S WCI  11
SLAYTON        SUNNY     17   8  67 NW7       30.16R WCI   8
$$
MNZ065>067-074>077-082>085-091>093-202200-
   South Central Minnesota

CITY           SKY/WX    TMP DP  RH WIND       PRES   REMARKS
MANKATO        SUNNY     18   7  62 NW12      30.17S WCI   5
NEW ULM        SUNNY     18   9  68 W10       30.18S WCI   6
FAIRMONT       SUNNY     19   7  58 W14       30.17S WCI   6
GLENCOE        SUNNY     17   7  65 W14       30.17R WCI   3
FARIBAULT      SUNNY     18   3  53 NW14G20   30.16R WCI   4
OWATONNA       SUNNY     16   3  57 NW14      30.15R WCI   1
WASECA         SUNNY     18   5  57 W12       30.18S WCI   5
ALBERT LEA     SUNNY     18   9  68 W10G16    30.16R WCI   6
$$
MNZ078>079-086>088-094>096-202200-
   Southeast Minnesota

CITY           SKY/WX    TMP DP  RH WIND       PRES   REMARKS
ROCHESTER      SUNNY     16   5  62 W20       30.12R WCI  -1
RED WING       SUNNY     19  -2  38 NW15G21   30.14R WCI   5
STANTON        SUNNY     18   4  54 W14       30.14S WCI   5
DODGE CENTER   SUNNY     16   7  67 NW12G18   30.13R WCI   3
WINONA         SUNNY     21   5  49 W15G25    30.15R WCI   8
AUSTIN         SUNNY     18   7  62 W13       30.15R WCI   4
PRESTON        SUNNY     16   5  62 W18       30.13S WCI  -1
$$
ABBREVIATIONS USED IN REMARKS
   TC - TEMPERATURES IN CELSIUS
  WCI - WIND CHILL INDEX
   HX - HEAT INDEX
  VSB - VISIBILITY
$$


USA.gov is the U.S. government's official web portal to all federal, state and local government web resources and services.